SWA2297 KBNA-KDCA

Flight info

Callsign SWA2297
Flight time 1h 8m
Altitude 39000
Route CHADM4 MUNNY TONIO Q34 SITTR TRUPS5
Aircraft B38M/M-SDE1FGHILORVWXY/HB1

Departure

Time 2026-04-30 20:47
Airport Nashville International Airport (KBNA)

Arrival

Time 2026-04-30 21:56
Airport Ronald Reagan Washington National Airport (KDCA)
Time Latitude Longitude Altitude Speed Heading
2026-04-30 20:15 36.12796 -86.66654 572 ft 0 kts 92°
2026-04-30 20:36 36.12797 -86.66699 572 ft 3 kts 92°
2026-04-30 20:37 36.12804 -86.66726 573 ft 4 kts 139°
2026-04-30 20:37 36.12826 -86.66737 572 ft 3 kts 175°
2026-04-30 20:37 36.12829 -86.66738 572 ft 0 kts 176°
2026-04-30 20:40 36.12808 -86.66737 575 ft 9 kts 179°
2026-04-30 20:40 36.12714 -86.66776 574 ft 16 kts 220°
2026-04-30 20:41 36.12511 -86.66934 574 ft 17 kts 207°
2026-04-30 20:41 36.12405 -86.66898 577 ft 18 kts 133°
2026-04-30 20:41 36.12340 -86.66761 575 ft 19 kts 107°
2026-04-30 20:41 36.12297 -86.66598 572 ft 21 kts 105°
2026-04-30 20:42 36.12185 -86.66543 572 ft 21 kts 197°
2026-04-30 20:42 36.12055 -86.66594 577 ft 17 kts 197°
2026-04-30 20:42 36.11845 -86.66680 583 ft 15 kts 197°
2026-04-30 20:43 36.11751 -86.66715 587 ft 14 kts 198°
2026-04-30 20:43 36.11663 -86.66753 589 ft 14 kts 200°
2026-04-30 20:43 36.11571 -86.66788 591 ft 14 kts 199°
2026-04-30 20:44 36.11396 -86.66858 595 ft 13 kts 196°
2026-04-30 20:44 36.11317 -86.66869 593 ft 7 kts 129°
2026-04-30 20:44 36.11310 -86.66854 593 ft 5 kts 118°
2026-04-30 20:45 36.11337 -86.66743 593 ft 0 kts 15°
2026-04-30 20:46 36.11747 -86.66578 587 ft 101 kts 18°
2026-04-30 20:46 36.12652 -86.66216 599 ft 167 kts 18°
2026-04-30 20:47 36.15118 -86.64984 2189 ft 204 kts 33°
2026-04-30 20:47 36.16246 -86.63952 3420 ft 203 kts 37°
2026-04-30 20:48 36.18517 -86.61324 4509 ft 239 kts 45°
2026-04-30 20:48 36.19648 -86.59754 5135 ft 251 kts 50°
2026-04-30 20:48 36.20774 -86.58057 5804 ft 257 kts 48°
2026-04-30 20:48 36.21870 -86.56271 6495 ft 266 kts 61°
2026-04-30 20:49 36.22297 -86.54039 6589 ft 273 kts 90°
2026-04-30 20:49 36.22077 -86.52493 6652 ft 278 kts 105°
2026-04-30 20:49 36.21477 -86.50198 6809 ft 281 kts 104°
2026-04-30 20:50 36.20328 -86.45553 6974 ft 284 kts 105°
2026-04-30 20:50 36.19696 -86.42421 7104 ft 281 kts 90°
2026-04-30 20:50 36.19708 -86.40014 7862 ft 283 kts 86°
2026-04-30 20:50 36.19747 -86.37515 8424 ft 293 kts 87°
2026-04-30 20:51 36.19765 -86.35821 8925 ft 296 kts 87°
2026-04-30 20:51 36.19826 -86.30590 10184 ft 310 kts 87°
2026-04-30 20:51 36.19855 -86.27854 10512 ft 328 kts 88°
2026-04-30 20:52 36.19884 -86.24951 10854 ft 344 kts 88°
2026-04-30 20:52 36.19909 -86.21957 11394 ft 353 kts 88°
2026-04-30 20:52 36.19967 -86.15815 12671 ft 365 kts 88°
2026-04-30 20:53 36.19994 -86.12649 13342 ft 370 kts 89°
2026-04-30 20:53 36.20020 -86.09442 13982 ft 377 kts 89°
2026-04-30 20:53 36.20254 -86.06213 14640 ft 378 kts 75°
2026-04-30 20:54 36.21488 -85.99842 16016 ft 385 kts 75°
2026-04-30 20:54 36.22107 -85.96596 16691 ft 389 kts 75°
2026-04-30 20:54 36.22729 -85.93313 17315 ft 394 kts 75°
2026-04-30 20:55 36.23988 -85.86648 18557 ft 401 kts 75°
2026-04-30 20:55 36.24626 -85.83262 19054 ft 406 kts 75°
2026-04-30 20:55 36.25271 -85.79834 19548 ft 411 kts 74°
2026-04-30 20:56 36.27135 -85.73135 20566 ft 415 kts 66°
2026-04-30 20:56 36.28114 -85.69727 20904 ft 424 kts 67°
2026-04-30 20:56 36.30070 -85.62768 21886 ft 432 kts 67°
2026-04-30 20:57 36.31057 -85.59226 22318 ft 437 kts 67°
2026-04-30 20:57 36.32050 -85.55653 22801 ft 441 kts 66°
2026-04-30 20:57 36.33056 -85.52030 23228 ft 445 kts 66°
2026-04-30 20:58 36.35106 -85.44712 23989 ft 453 kts 64°
2026-04-30 20:58 36.36258 -85.41065 24359 ft 457 kts 63°
2026-04-30 20:58 36.37414 -85.37382 24733 ft 460 kts 63°
2026-04-30 20:58 36.38574 -85.33653 25056 ft 465 kts 63°
2026-04-30 20:59 36.40915 -85.26102 25759 ft 473 kts 63°
2026-04-30 20:59 36.42099 -85.22273 26101 ft 476 kts 62°
2026-04-30 21:00 36.44483 -85.14543 26774 ft 484 kts 62°
2026-04-30 21:00 36.46906 -85.06671 27403 ft 492 kts 62°
2026-04-30 21:01 36.49359 -84.98679 28045 ft 497 kts 62°
2026-04-30 21:01 36.50665 -84.94708 28335 ft 495 kts 56°
2026-04-30 21:01 36.53711 -84.87046 28903 ft 502 kts 55°
2026-04-30 21:02 36.55272 -84.83152 29197 ft 505 kts 55°
2026-04-30 21:02 36.56843 -84.79225 29518 ft 508 kts 55°
2026-04-30 21:02 36.58423 -84.75275 29778 ft 512 kts 55°
2026-04-30 21:02 36.60010 -84.71299 30064 ft 515 kts 55°
2026-04-30 21:03 36.61606 -84.67297 30297 ft 518 kts 55°
2026-04-30 21:03 36.63210 -84.63267 30600 ft 520 kts 56°
2026-04-30 21:03 36.64805 -84.59259 30915 ft 520 kts 55°
2026-04-30 21:03 36.66416 -84.55205 31097 ft 524 kts 56°
2026-04-30 21:04 36.68036 -84.51121 31336 ft 526 kts 56°
2026-04-30 21:04 36.69658 -84.47028 31560 ft 529 kts 55°
2026-04-30 21:04 36.72931 -84.38753 31999 ft 534 kts 55°
2026-04-30 21:05 36.74578 -84.34581 32169 ft 538 kts 55°
2026-04-30 21:05 36.76227 -84.30399 32361 ft 540 kts 55°
2026-04-30 21:05 36.77884 -84.26191 32567 ft 542 kts 55°
2026-04-30 21:05 36.79549 -84.21955 32748 ft 545 kts 56°
2026-04-30 21:06 36.81224 -84.17690 32965 ft 548 kts 55°
2026-04-30 21:06 36.82899 -84.13419 33179 ft 550 kts 55°
2026-04-30 21:06 36.84585 -84.09112 33440 ft 553 kts 55°
2026-04-30 21:06 36.86266 -84.04809 33676 ft 554 kts 56°
2026-04-30 21:07 36.87961 -84.00472 33881 ft 557 kts 56°
2026-04-30 21:07 36.89660 -83.96115 34098 ft 558 kts 56°
2026-04-30 21:07 36.91354 -83.91765 34353 ft 558 kts 56°
2026-04-30 21:07 36.93054 -83.87393 34620 ft 558 kts 56°
2026-04-30 21:08 36.94745 -83.83036 34919 ft 556 kts 56°
2026-04-30 21:08 36.96431 -83.78691 35177 ft 555 kts 55°
2026-04-30 21:08 36.98106 -83.74369 35429 ft 555 kts 56°
2026-04-30 21:08 36.99785 -83.70025 35690 ft 554 kts 56°
2026-04-30 21:09 37.01460 -83.65689 35955 ft 553 kts 56°
2026-04-30 21:09 37.03127 -83.61366 36198 ft 552 kts 56°
2026-04-30 21:09 37.04796 -83.57033 36406 ft 552 kts 56°
2026-04-30 21:09 37.06434 -83.52774 36737 ft 550 kts 56°
2026-04-30 21:10 37.08103 -83.48427 37014 ft 548 kts 56°
2026-04-30 21:10 37.09753 -83.44129 37057 ft 548 kts 56°
2026-04-30 21:10 37.13016 -83.35605 37005 ft 544 kts 56°
2026-04-30 21:11 37.16294 -83.27020 37015 ft 546 kts 56°
2026-04-30 21:11 37.19558 -83.18446 37008 ft 546 kts 56°
2026-04-30 21:12 37.22820 -83.09858 37017 ft 545 kts 56°
2026-04-30 21:12 37.25902 -83.01146 37008 ft 551 kts 63°
2026-04-30 21:13 37.28523 -82.92097 37029 ft 553 kts 63°
2026-04-30 21:13 37.31106 -82.83031 37024 ft 553 kts 63°
2026-04-30 21:14 37.33685 -82.73928 37062 ft 553 kts 63°
2026-04-30 21:14 37.36249 -82.64846 37002 ft 551 kts 63°
2026-04-30 21:15 37.38804 -82.55774 37043 ft 553 kts 63°
2026-04-30 21:15 37.41360 -82.46660 37023 ft 552 kts 63°
2026-04-30 21:16 37.43903 -82.37560 37026 ft 551 kts 64°
2026-04-30 21:16 37.46426 -82.28507 37035 ft 549 kts 64°
2026-04-30 21:17 37.48960 -82.19383 36976 ft 553 kts 64°
2026-04-30 21:17 37.51480 -82.10276 37027 ft 554 kts 64°
2026-04-30 21:18 37.53996 -82.01131 37031 ft 553 kts 64°
2026-04-30 21:18 37.56519 -81.91968 37030 ft 553 kts 64°
2026-04-30 21:19 37.59030 -81.82798 37019 ft 553 kts 64°
2026-04-30 21:19 37.61530 -81.73628 36990 ft 553 kts 64°
2026-04-30 21:20 37.64006 -81.64524 37040 ft 554 kts 64°
2026-04-30 21:20 37.66458 -81.55331 37066 ft 554 kts 69°
2026-04-30 21:21 37.67178 -81.50863 36792 ft 555 kts 76°
2026-04-30 21:21 37.68016 -81.46178 37062 ft 540 kts 64°
2026-04-30 21:22 37.72321 -81.33274 36991 ft 546 kts 63°
2026-04-30 21:23 37.77305 -81.15050 37006 ft 548 kts 65°
2026-04-30 21:23 37.81696 -81.01986 37022 ft 543 kts 58°
2026-04-30 21:24 37.84771 -80.93292 37048 ft 541 kts 59°
2026-04-30 21:24 37.87830 -80.84627 36973 ft 535 kts 59°
2026-04-30 21:25 37.92419 -80.71745 36988 ft 536 kts 59°
2026-04-30 21:26 37.96998 -80.58825 36990 ft 537 kts 59°
2026-04-30 21:27 38.01559 -80.45898 36994 ft 535 kts 59°
2026-04-30 21:27 38.04587 -80.37288 36986 ft 534 kts 59°
2026-04-30 21:28 38.09109 -80.24426 36965 ft 534 kts 59°
2026-04-30 21:29 38.13698 -80.11523 36981 ft 533 kts 59°
2026-04-30 21:30 38.21280 -79.90052 36996 ft 533 kts 59°
2026-04-30 21:31 38.28773 -79.68592 36970 ft 531 kts 61°
2026-04-30 21:32 38.33222 -79.55668 36956 ft 529 kts 61°
2026-04-30 21:32 38.36169 -79.47075 36965 ft 531 kts 61°
2026-04-30 21:33 38.40593 -79.34127 37016 ft 537 kts 62°
2026-04-30 21:34 38.42965 -79.25141 36914 ft 534 kts 77°
2026-04-30 21:34 38.45447 -79.11270 36947 ft 536 kts 75°
2026-04-30 21:35 38.47082 -79.01964 36921 ft 538 kts 75°
2026-04-30 21:35 38.48702 -78.92666 36928 ft 537 kts 75°
2026-04-30 21:36 38.50270 -78.83334 36928 ft 537 kts 76°
2026-04-30 21:37 38.52986 -78.66254 36917 ft 537 kts 77°
2026-04-30 21:37 38.54477 -78.56914 36940 ft 536 kts 77°
2026-04-30 21:38 38.55958 -78.47573 36721 ft 536 kts 77°
2026-04-30 21:38 38.56691 -78.42936 35950 ft 538 kts 77°
2026-04-30 21:38 38.57469 -78.38264 35382 ft 534 kts 76°
2026-04-30 21:39 38.58265 -78.33663 34887 ft 530 kts 75°
2026-04-30 21:39 38.59056 -78.29062 34276 ft 529 kts 75°
2026-04-30 21:39 38.59900 -78.24501 33524 ft 527 kts 69°
2026-04-30 21:39 38.61261 -78.20184 32842 ft 521 kts 63°
2026-04-30 21:40 38.62653 -78.15917 32230 ft 519 kts 64°
2026-04-30 21:40 38.64000 -78.11690 31714 ft 514 kts 65°
2026-04-30 21:40 38.65354 -78.07467 31064 ft 513 kts 64°
2026-04-30 21:40 38.66723 -78.03225 30187 ft 517 kts 65°
2026-04-30 21:41 38.68097 -77.98951 29108 ft 521 kts 65°
2026-04-30 21:41 38.69467 -77.94681 28001 ft 516 kts 65°
2026-04-30 21:41 38.70812 -77.90477 26995 ft 509 kts 65°
2026-04-30 21:41 38.72148 -77.86302 26150 ft 502 kts 65°
2026-04-30 21:42 38.73635 -77.82330 25199 ft 492 kts 53°
2026-04-30 21:42 38.75761 -77.78987 24289 ft 479 kts 41°
2026-04-30 21:42 38.78016 -77.75878 23464 ft 475 kts 43°
2026-04-30 21:42 38.80215 -77.72744 22430 ft 471 kts 44°
2026-04-30 21:43 38.82257 -77.69467 21402 ft 473 kts 55°
2026-04-30 21:43 38.83703 -77.65685 20447 ft 472 kts 64°
2026-04-30 21:43 38.85056 -77.61884 19496 ft 468 kts 63°
2026-04-30 21:43 38.86422 -77.58125 18576 ft 463 kts 63°
2026-04-30 21:44 38.87775 -77.54416 17648 ft 458 kts 63°
2026-04-30 21:44 38.89115 -77.50732 16665 ft 453 kts 64°
2026-04-30 21:44 38.89993 -77.46904 15652 ft 452 kts 83°
2026-04-30 21:44 38.89976 -77.42919 14739 ft 445 kts 101°
2026-04-30 21:45 38.89090 -77.39171 13837 ft 435 kts 119°
2026-04-30 21:45 38.87468 -77.35963 12897 ft 423 kts 130°
2026-04-30 21:45 38.85902 -77.32787 11966 ft 419 kts 123°
2026-04-30 21:45 38.84417 -77.29528 11002 ft 415 kts 123°
2026-04-30 21:46 38.82976 -77.26368 10378 ft 402 kts 122°
2026-04-30 21:46 38.81629 -77.23386 10340 ft 375 kts 122°
2026-04-30 21:46 38.80388 -77.20630 10308 ft 351 kts 123°
2026-04-30 21:46 38.79187 -77.17966 10268 ft 328 kts 123°
2026-04-30 21:47 38.78091 -77.15534 10235 ft 315 kts 123°
2026-04-30 21:47 38.76890 -77.13237 10087 ft 303 kts 139°
2026-04-30 21:47 38.75210 -77.11812 9768 ft 282 kts 166°
2026-04-30 21:47 38.73320 -77.11380 9198 ft 274 kts 182°
2026-04-30 21:48 38.71413 -77.11218 8632 ft 275 kts 181°
2026-04-30 21:48 38.69507 -77.11067 8089 ft 274 kts 181°
2026-04-30 21:48 38.67609 -77.10932 7591 ft 272 kts 182°
2026-04-30 21:48 38.65727 -77.10809 7126 ft 272 kts 181°
2026-04-30 21:49 38.63837 -77.10695 6634 ft 271 kts 181°
2026-04-30 21:49 38.61958 -77.10512 6095 ft 273 kts 171°
2026-04-30 21:49 38.60260 -77.09448 5596 ft 275 kts 139°
2026-04-30 21:49 38.59176 -77.07466 5061 ft 275 kts 108°
2026-04-30 21:50 38.58981 -77.05120 4747 ft 261 kts 78°
2026-04-30 21:50 38.59600 -77.03046 4512 ft 241 kts 51°
2026-04-30 21:50 38.60750 -77.01601 4172 ft 226 kts 26°
2026-04-30 21:50 38.62157 -77.00894 3895 ft 211 kts
2026-04-30 21:51 38.63593 -77.00551 3802 ft 213 kts
2026-04-30 21:51 38.65072 -77.00246 3696 ft 214 kts
2026-04-30 21:51 38.66489 -77.00019 3592 ft 200 kts
2026-04-30 21:51 38.67838 -77.00134 3279 ft 191 kts 338°
2026-04-30 21:52 38.69021 -77.00841 3020 ft 186 kts 330°
2026-04-30 21:52 38.70150 -77.01655 2769 ft 187 kts 326°
2026-04-30 21:52 38.71354 -77.02299 2475 ft 191 kts 347°
2026-04-30 21:52 38.72653 -77.02460 2261 ft 184 kts 350°
2026-04-30 21:53 38.73916 -77.02605 1999 ft 180 kts 351°
2026-04-30 21:53 38.75131 -77.02738 1776 ft 167 kts 350°
2026-04-30 21:53 38.76199 -77.02863 1652 ft 146 kts 348°
2026-04-30 21:53 38.77210 -77.02976 1334 ft 145 kts 351°
2026-04-30 21:54 38.78210 -77.03087 1019 ft 145 kts 349°
2026-04-30 21:54 38.79212 -77.03197 769 ft 146 kts 349°
2026-04-30 21:54 38.80269 -77.03279 641 ft 153 kts 349°
2026-04-30 21:54 38.81310 -77.03391 469 ft 146 kts 348°
2026-04-30 21:55 38.82311 -77.03494 322 ft 142 kts 353°
2026-04-30 21:55 38.83282 -77.03537 176 ft 139 kts 349°
2026-04-30 21:55 38.84235 -77.03676 50 ft 134 kts 348°
2026-04-30 21:55 38.84995 -77.03770 26 ft 78 kts 358°
2026-04-30 21:56 38.85377 -77.03802 28 ft 46 kts 356°
2026-04-30 21:56 38.85513 -77.03922 27 ft 19 kts 242°
2026-04-30 21:56 38.85393 -77.03937 26 ft 19 kts 173°
2026-04-30 21:56 38.85258 -77.03919 33 ft 20 kts 178°
2026-04-30 21:57 38.85115 -77.03911 26 ft 21 kts 173°
2026-04-30 21:57 38.84963 -77.03897 28 ft 23 kts 174°
2026-04-30 21:57 38.84801 -77.03882 26 ft 24 kts 181°
2026-04-30 21:57 38.84697 -77.03998 27 ft 20 kts 212°
2026-04-30 21:58 38.84601 -77.04086 27 ft 13 kts 239°
2026-04-30 21:58 38.84603 -77.04173 27 ft 9 kts 322°
2026-04-30 21:58 38.84636 -77.04196 27 ft 1 kts 331°
2026-04-30 21:58 38.84646 -77.04203 27 ft 0 kts 332°